User: anonymous   Login
Location: Unspecified
(0.0000°N, 0.0000°E)
Time: 09:31:09
(UTC+00:00)
Language:

CASSIOPE - Orbit

View from above orbital plane
View from above orbital plane
View from above satellite
View from above satellite

Ground track
Ground track

The orbit data is extracted from the following two-line orbital elements,

1 39265U 13055A   19287.88949917 +.00003204 +00000-0 +91889-4 0  9999
2 39265 080.9712 211.9199 0664883 303.0477 050.8504 14.28224177312595
Epoch (UTC): 14 October 2019 21:20:52
Eccentricity: 0.0664883
inclination: 80.9712°
perigee height: 320 km
apogee height: 1275 km
right ascension of ascending node: 211.9199°
argument of perigee: 303.0477°
revolutions per day: 14.28224177
mean anomaly at epoch: 50.8504°
orbit number at epoch: 31259

The dashed part of the orbit path shows where the satellite is in the earth's shadow,  

DLR